Data supplied by UK-AIR on 5/4/2008
All Data GMT hour ending 
Status: R =Ratified P=Provisional,P*=As supplied
,,Billingham,,,,,,,,,,,,,,,,,,,,,,,
Date,time,"Nitric oxide",status,unit,"Nitrogen dioxide",status,unit,"Nitrogen oxides as nitrogen dioxide",status,unit
 
01-01-1995,01:00,,,,,,,,,
01-01-1995,02:00,3,R,ugm-3,10,R,ugm-3,13,R,ugm-3
01-01-1995,03:00,3,R,ugm-3,6,R,ugm-3,10,R,ugm-3
01-01-1995,04:00,4,R,ugm-3,8,R,ugm-3,13,R,ugm-3
01-01-1995,05:00,3,R,ugm-3,8,R,ugm-3,11,R,ugm-3
01-01-1995,06:00,3,R,ugm-3,8,R,ugm-3,11,R,ugm-3
01-01-1995,07:00,4,R,ugm-3,10,R,ugm-3,15,R,ugm-3
01-01-1995,08:00,4,R,ugm-3,10,R,ugm-3,15,R,ugm-3
01-01-1995,09:00,11,R,ugm-3,23,R,ugm-3,40,R,ugm-3
01-01-1995,10:00,5,R,ugm-3,6,R,ugm-3,13,R,ugm-3
01-01-1995,11:00,9,R,ugm-3,8,R,ugm-3,21,R,ugm-3
01-01-1995,12:00,15,R,ugm-3,19,R,ugm-3,42,R,ugm-3
01-01-1995,13:00,5,R,ugm-3,4,R,ugm-3,11,R,ugm-3
01-01-1995,14:00,3,R,ugm-3,2,R,ugm-3,6,R,ugm-3
01-01-1995,15:00,3,R,ugm-3,4,R,ugm-3,8,R,ugm-3
01-01-1995,16:00,3,R,ugm-3,4,R,ugm-3,8,R,ugm-3
01-01-1995,17:00,4,R,ugm-3,2,R,ugm-3,8,R,ugm-3
01-01-1995,18:00,3,R,ugm-3,4,R,ugm-3,8,R,ugm-3
01-01-1995,19:00,3,R,ugm-3,4,R,ugm-3,8,R,ugm-3
01-01-1995,20:00,3,R,ugm-3,6,R,ugm-3,10,R,ugm-3
01-01-1995,21:00,3,R,ugm-3,4,R,ugm-3,8,R,ugm-3
01-01-1995,22:00,1,R,ugm-3,4,R,ugm-3,6,R,ugm-3
01-01-1995,23:00,1,R,ugm-3,2,R,ugm-3,4,R,ugm-3
01-01-1995,24:00,3,R,ugm-3,2,R,ugm-3,6,R,ugm-3
02-01-1995,01:00,1,R,ugm-3,2,R,ugm-3,4,R,ugm-3
02-01-1995,02:00,1,R,ugm-3,2,R,ugm-3,4,R,ugm-3
02-01-1995,03:00,1,R,ugm-3,2,R,ugm-3,4,R,ugm-3
02-01-1995,04:00,1,R,ugm-3,2,R,ugm-3,4,R,ugm-3
02-01-1995,05:00,6,R,ugm-3,2,R,ugm-3,11,R,ugm-3
02-01-1995,06:00,1,R,ugm-3,2,R,ugm-3,4,R,ugm-3
02-01-1995,07:00,3,R,ugm-3,2,R,ugm-3,6,R,ugm-3
02-01-1995,08:00,3,R,ugm-3,4,R,ugm-3,8,R,ugm-3
02-01-1995,09:00,4,R,ugm-3,4,R,ugm-3,10,R,ugm-3
02-01-1995,10:00,4,R,ugm-3,6,R,ugm-3,11,R,ugm-3
02-01-1995,11:00,4,R,ugm-3,6,R,ugm-3,11,R,ugm-3
02-01-1995,12:00,13,R,ugm-3,15,R,ugm-3,34,R,ugm-3
02-01-1995,13:00,4,R,ugm-3,11,R,ugm-3,17,R,ugm-3
02-01-1995,14:00,8,R,ugm-3,17,R,ugm-3,29,R,ugm-3
02-01-1995,15:00,18,R,ugm-3,34,R,ugm-3,61,R,ugm-3
02-01-1995,16:00,6,R,ugm-3,25,R,ugm-3,34,R,ugm-3
02-01-1995,17:00,4,R,ugm-3,27,R,ugm-3,32,R,ugm-3
02-01-1995,18:00,6,R,ugm-3,27,R,ugm-3,36,R,ugm-3
02-01-1995,19:00,4,R,ugm-3,27,R,ugm-3,32,R,ugm-3
02-01-1995,20:00,4,R,ugm-3,27,R,ugm-3,32,R,ugm-3
02-01-1995,21:00,5,R,ugm-3,25,R,ugm-3,32,R,ugm-3
02-01-1995,22:00,4,R,ugm-3,17,R,ugm-3,23,R,ugm-3
02-01-1995,23:00,5,R,ugm-3,32,R,ugm-3,40,R,ugm-3
02-01-1995,24:00,9,R,ugm-3,46,R,ugm-3,59,R,ugm-3
03-01-1995,01:00,10,R,ugm-3,48,R,ugm-3,63,R,ugm-3
03-01-1995,02:00,4,R,ugm-3,40,R,ugm-3,46,R,ugm-3
03-01-1995,03:00,5,R,ugm-3,40,R,ugm-3,48,R,ugm-3
03-01-1995,04:00,5,R,ugm-3,31,R,ugm-3,38,R,ugm-3
03-01-1995,05:00,8,R,ugm-3,31,R,ugm-3,42,R,ugm-3
03-01-1995,06:00,31,R,ugm-3,48,R,ugm-3,96,R,ugm-3
03-01-1995,07:00,89,R,ugm-3,53,R,ugm-3,189,R,ugm-3
03-01-1995,08:00,189,R,ugm-3,74,R,ugm-3,363,R,ugm-3
03-01-1995,09:00,191,R,ugm-3,74,R,ugm-3,367,R,ugm-3
03-01-1995,10:00,271,R,ugm-3,80,R,ugm-3,495,R,ugm-3
03-01-1995,11:00,249,R,ugm-3,74,R,ugm-3,455,R,ugm-3
03-01-1995,12:00,141,R,ugm-3,61,R,ugm-3,277,R,ugm-3
03-01-1995,13:00,86,R,ugm-3,63,R,ugm-3,195,R,ugm-3
03-01-1995,14:00,93,R,ugm-3,73,R,ugm-3,214,R,ugm-3
03-01-1995,15:00,,,,,,,,,
03-01-1995,16:00,88,R,ugm-3,90,R,ugm-3,223,R,ugm-3
03-01-1995,17:00,148,R,ugm-3,99,R,ugm-3,325,R,ugm-3
03-01-1995,18:00,183,R,ugm-3,124,R,ugm-3,403,R,ugm-3
03-01-1995,19:00,103,R,ugm-3,88,R,ugm-3,244,R,ugm-3
03-01-1995,20:00,125,R,ugm-3,82,R,ugm-3,273,R,ugm-3
03-01-1995,21:00,120,R,ugm-3,94,R,ugm-3,277,R,ugm-3
03-01-1995,22:00,105,R,ugm-3,74,R,ugm-3,235,R,ugm-3
03-01-1995,23:00,55,R,ugm-3,63,R,ugm-3,147,R,ugm-3
03-01-1995,24:00,41,R,ugm-3,57,R,ugm-3,120,R,ugm-3
04-01-1995,01:00,14,R,ugm-3,52,R,ugm-3,73,R,ugm-3
04-01-1995,02:00,34,R,ugm-3,65,R,ugm-3,117,R,ugm-3
04-01-1995,03:00,59,R,ugm-3,78,R,ugm-3,168,R,ugm-3
04-01-1995,04:00,26,R,ugm-3,73,R,ugm-3,113,R,ugm-3
04-01-1995,05:00,11,R,ugm-3,61,R,ugm-3,78,R,ugm-3
04-01-1995,06:00,29,R,ugm-3,73,R,ugm-3,117,R,ugm-3
04-01-1995,07:00,51,R,ugm-3,78,R,ugm-3,157,R,ugm-3
04-01-1995,08:00,135,R,ugm-3,73,R,ugm-3,279,R,ugm-3
04-01-1995,09:00,119,R,ugm-3,69,R,ugm-3,250,R,ugm-3
04-01-1995,10:00,113,R,ugm-3,69,R,ugm-3,241,R,ugm-3
04-01-1995,11:00,76,R,ugm-3,71,R,ugm-3,187,R,ugm-3
04-01-1995,12:00,69,R,ugm-3,69,R,ugm-3,174,R,ugm-3
04-01-1995,13:00,68,R,ugm-3,69,R,ugm-3,172,R,ugm-3
04-01-1995,14:00,68,R,ugm-3,73,R,ugm-3,176,R,ugm-3
04-01-1995,15:00,66,R,ugm-3,73,R,ugm-3,174,R,ugm-3
04-01-1995,16:00,65,R,ugm-3,73,R,ugm-3,172,R,ugm-3
04-01-1995,17:00,91,R,ugm-3,74,R,ugm-3,214,R,ugm-3
04-01-1995,18:00,80,R,ugm-3,73,R,ugm-3,195,R,ugm-3
04-01-1995,19:00,91,R,ugm-3,71,R,ugm-3,210,R,ugm-3
04-01-1995,20:00,94,R,ugm-3,71,R,ugm-3,214,R,ugm-3
04-01-1995,21:00,86,R,ugm-3,67,R,ugm-3,199,R,ugm-3
04-01-1995,22:00,61,R,ugm-3,71,R,ugm-3,164,R,ugm-3
04-01-1995,23:00,59,R,ugm-3,65,R,ugm-3,155,R,ugm-3
04-01-1995,24:00,28,R,ugm-3,55,R,ugm-3,97,R,ugm-3
05-01-1995,01:00,35,R,ugm-3,55,R,ugm-3,109,R,ugm-3
05-01-1995,02:00,66,R,ugm-3,57,R,ugm-3,159,R,ugm-3
05-01-1995,03:00,76,R,ugm-3,57,R,ugm-3,174,R,ugm-3
05-01-1995,04:00,56,R,ugm-3,52,R,ugm-3,138,R,ugm-3
05-01-1995,05:00,54,R,ugm-3,52,R,ugm-3,134,R,ugm-3
05-01-1995,06:00,48,R,ugm-3,50,R,ugm-3,122,R,ugm-3
05-01-1995,07:00,56,R,ugm-3,52,R,ugm-3,138,R,ugm-3
05-01-1995,08:00,48,R,ugm-3,50,R,ugm-3,122,R,ugm-3
05-01-1995,09:00,50,R,ugm-3,52,R,ugm-3,128,R,ugm-3
05-01-1995,10:00,46,R,ugm-3,50,R,ugm-3,120,R,ugm-3
05-01-1995,11:00,60,R,ugm-3,50,R,ugm-3,141,R,ugm-3
05-01-1995,12:00,60,R,ugm-3,53,R,ugm-3,145,R,ugm-3
05-01-1995,13:00,29,R,ugm-3,44,R,ugm-3,88,R,ugm-3
05-01-1995,14:00,53,R,ugm-3,53,R,ugm-3,134,R,ugm-3
05-01-1995,15:00,114,R,ugm-3,67,R,ugm-3,241,R,ugm-3
05-01-1995,16:00,55,R,ugm-3,55,R,ugm-3,139,R,ugm-3
05-01-1995,17:00,23,R,ugm-3,53,R,ugm-3,88,R,ugm-3
05-01-1995,18:00,36,R,ugm-3,59,R,ugm-3,115,R,ugm-3
05-01-1995,19:00,10,R,ugm-3,52,R,ugm-3,67,R,ugm-3
05-01-1995,20:00,13,R,ugm-3,55,R,ugm-3,74,R,ugm-3
05-01-1995,21:00,9,R,ugm-3,52,R,ugm-3,65,R,ugm-3
05-01-1995,22:00,6,R,ugm-3,42,R,ugm-3,52,R,ugm-3
05-01-1995,23:00,4,R,ugm-3,40,R,ugm-3,46,R,ugm-3
05-01-1995,24:00,4,R,ugm-3,36,R,ugm-3,42,R,ugm-3
06-01-1995,01:00,5,R,ugm-3,48,R,ugm-3,55,R,ugm-3
06-01-1995,02:00,4,R,ugm-3,44,R,ugm-3,50,R,ugm-3
06-01-1995,03:00,4,R,ugm-3,44,R,ugm-3,50,R,ugm-3
06-01-1995,04:00,9,R,ugm-3,42,R,ugm-3,55,R,ugm-3
06-01-1995,05:00,5,R,ugm-3,36,R,ugm-3,44,R,ugm-3
06-01-1995,06:00,19,R,ugm-3,40,R,ugm-3,69,R,ugm-3
06-01-1995,07:00,20,R,ugm-3,42,R,ugm-3,73,R,ugm-3
06-01-1995,08:00,66,R,ugm-3,71,R,ugm-3,172,R,ugm-3
06-01-1995,09:00,64,R,ugm-3,74,R,ugm-3,172,R,ugm-3
06-01-1995,10:00,55,R,ugm-3,65,R,ugm-3,149,R,ugm-3
06-01-1995,11:00,54,R,ugm-3,59,R,ugm-3,141,R,ugm-3
06-01-1995,12:00,80,R,ugm-3,76,R,ugm-3,199,R,ugm-3
06-01-1995,13:00,36,R,ugm-3,53,R,ugm-3,109,R,ugm-3
06-01-1995,14:00,26,R,ugm-3,38,R,ugm-3,78,R,ugm-3
06-01-1995,15:00,53,R,ugm-3,65,R,ugm-3,145,R,ugm-3
06-01-1995,16:00,46,R,ugm-3,69,R,ugm-3,139,R,ugm-3
06-01-1995,17:00,58,R,ugm-3,67,R,ugm-3,155,R,ugm-3
06-01-1995,18:00,80,R,ugm-3,71,R,ugm-3,193,R,ugm-3
06-01-1995,19:00,75,R,ugm-3,67,R,ugm-3,181,R,ugm-3
06-01-1995,20:00,106,R,ugm-3,73,R,ugm-3,235,R,ugm-3
06-01-1995,21:00,68,R,ugm-3,65,R,ugm-3,168,R,ugm-3
06-01-1995,22:00,59,R,ugm-3,59,R,ugm-3,149,R,ugm-3
06-01-1995,23:00,54,R,ugm-3,65,R,ugm-3,147,R,ugm-3
06-01-1995,24:00,31,R,ugm-3,59,R,ugm-3,107,R,ugm-3
07-01-1995,01:00,26,R,ugm-3,53,R,ugm-3,94,R,ugm-3
07-01-1995,02:00,8,R,ugm-3,38,R,ugm-3,50,R,ugm-3
07-01-1995,03:00,5,R,ugm-3,36,R,ugm-3,44,R,ugm-3
07-01-1995,04:00,5,R,ugm-3,34,R,ugm-3,42,R,ugm-3
07-01-1995,05:00,4,R,ugm-3,27,R,ugm-3,32,R,ugm-3
07-01-1995,06:00,15,R,ugm-3,40,R,ugm-3,63,R,ugm-3
07-01-1995,07:00,14,R,ugm-3,34,R,ugm-3,55,R,ugm-3
07-01-1995,08:00,13,R,ugm-3,27,R,ugm-3,46,R,ugm-3
07-01-1995,09:00,5,R,ugm-3,36,R,ugm-3,44,R,ugm-3
07-01-1995,10:00,6,R,ugm-3,38,R,ugm-3,48,R,ugm-3
07-01-1995,11:00,9,R,ugm-3,40,R,ugm-3,53,R,ugm-3
07-01-1995,12:00,10,R,ugm-3,36,R,ugm-3,52,R,ugm-3
07-01-1995,13:00,15,R,ugm-3,40,R,ugm-3,63,R,ugm-3
07-01-1995,14:00,15,R,ugm-3,44,R,ugm-3,67,R,ugm-3
07-01-1995,15:00,16,R,ugm-3,53,R,ugm-3,78,R,ugm-3
07-01-1995,16:00,13,R,ugm-3,53,R,ugm-3,73,R,ugm-3
07-01-1995,17:00,15,R,ugm-3,55,R,ugm-3,78,R,ugm-3
07-01-1995,18:00,11,R,ugm-3,48,R,ugm-3,65,R,ugm-3
07-01-1995,19:00,8,R,ugm-3,40,R,ugm-3,52,R,ugm-3
07-01-1995,20:00,6,R,ugm-3,38,R,ugm-3,48,R,ugm-3
07-01-1995,21:00,4,R,ugm-3,29,R,ugm-3,34,R,ugm-3
07-01-1995,22:00,4,R,ugm-3,19,R,ugm-3,25,R,ugm-3
07-01-1995,23:00,5,R,ugm-3,19,R,ugm-3,27,R,ugm-3
07-01-1995,24:00,3,R,ugm-3,6,R,ugm-3,10,R,ugm-3
08-01-1995,01:00,1,R,ugm-3,15,R,ugm-3,17,R,ugm-3
08-01-1995,02:00,23,R,ugm-3,36,R,ugm-3,71,R,ugm-3
08-01-1995,03:00,5,R,ugm-3,11,R,ugm-3,19,R,ugm-3
08-01-1995,04:00,3,R,ugm-3,13,R,ugm-3,17,R,ugm-3
08-01-1995,05:00,4,R,ugm-3,6,R,ugm-3,11,R,ugm-3
08-01-1995,06:00,8,R,ugm-3,10,R,ugm-3,21,R,ugm-3
08-01-1995,07:00,11,R,ugm-3,19,R,ugm-3,36,R,ugm-3
08-01-1995,08:00,4,R,ugm-3,27,R,ugm-3,32,R,ugm-3
08-01-1995,09:00,4,R,ugm-3,21,R,ugm-3,27,R,ugm-3
08-01-1995,10:00,8,R,ugm-3,21,R,ugm-3,32,R,ugm-3
08-01-1995,11:00,39,R,ugm-3,50,R,ugm-3,109,R,ugm-3
08-01-1995,12:00,23,R,ugm-3,44,R,ugm-3,78,R,ugm-3
08-01-1995,13:00,13,R,ugm-3,32,R,ugm-3,52,R,ugm-3
08-01-1995,14:00,13,R,ugm-3,32,R,ugm-3,52,R,ugm-3
08-01-1995,15:00,11,R,ugm-3,29,R,ugm-3,46,R,ugm-3
08-01-1995,16:00,11,R,ugm-3,29,R,ugm-3,46,R,ugm-3
08-01-1995,17:00,11,R,ugm-3,36,R,ugm-3,53,R,ugm-3
08-01-1995,18:00,10,R,ugm-3,31,R,ugm-3,46,R,ugm-3
08-01-1995,19:00,10,R,ugm-3,32,R,ugm-3,48,R,ugm-3
08-01-1995,20:00,8,R,ugm-3,38,R,ugm-3,50,R,ugm-3
08-01-1995,21:00,6,R,ugm-3,27,R,ugm-3,36,R,ugm-3
08-01-1995,22:00,6,R,ugm-3,31,R,ugm-3,40,R,ugm-3
08-01-1995,23:00,10,R,ugm-3,34,R,ugm-3,50,R,ugm-3
08-01-1995,24:00,6,R,ugm-3,15,R,ugm-3,25,R,ugm-3
09-01-1995,01:00,3,R,ugm-3,10,R,ugm-3,13,R,ugm-3
09-01-1995,02:00,0,R,ugm-3,10,R,ugm-3,10,R,ugm-3
09-01-1995,03:00,1,R,ugm-3,8,R,ugm-3,10,R,ugm-3
09-01-1995,04:00,1,R,ugm-3,10,R,ugm-3,11,R,ugm-3
09-01-1995,05:00,3,R,ugm-3,11,R,ugm-3,15,R,ugm-3
09-01-1995,06:00,3,R,ugm-3,8,R,ugm-3,11,R,ugm-3
09-01-1995,07:00,10,R,ugm-3,17,R,ugm-3,32,R,ugm-3
09-01-1995,08:00,16,R,ugm-3,40,R,ugm-3,65,R,ugm-3
09-01-1995,09:00,11,R,ugm-3,40,R,ugm-3,57,R,ugm-3
09-01-1995,10:00,13,R,ugm-3,31,R,ugm-3,50,R,ugm-3
09-01-1995,11:00,10,R,ugm-3,23,R,ugm-3,38,R,ugm-3
09-01-1995,12:00,11,R,ugm-3,21,R,ugm-3,38,R,ugm-3
09-01-1995,13:00,11,R,ugm-3,25,R,ugm-3,42,R,ugm-3
09-01-1995,14:00,13,R,ugm-3,19,R,ugm-3,38,R,ugm-3
09-01-1995,15:00,16,R,ugm-3,19,R,ugm-3,44,R,ugm-3
09-01-1995,16:00,11,R,ugm-3,19,R,ugm-3,36,R,ugm-3
09-01-1995,17:00,14,R,ugm-3,25,R,ugm-3,46,R,ugm-3
09-01-1995,18:00,19,R,ugm-3,25,R,ugm-3,53,R,ugm-3
09-01-1995,19:00,18,R,ugm-3,25,R,ugm-3,52,R,ugm-3
09-01-1995,20:00,20,R,ugm-3,31,R,ugm-3,61,R,ugm-3
09-01-1995,21:00,20,R,ugm-3,27,R,ugm-3,57,R,ugm-3
09-01-1995,22:00,15,R,ugm-3,25,R,ugm-3,48,R,ugm-3
09-01-1995,23:00,9,R,ugm-3,17,R,ugm-3,31,R,ugm-3
09-01-1995,24:00,5,R,ugm-3,8,R,ugm-3,15,R,ugm-3
10-01-1995,01:00,5,R,ugm-3,10,R,ugm-3,17,R,ugm-3
10-01-1995,02:00,1,R,ugm-3,17,R,ugm-3,19,R,ugm-3
10-01-1995,03:00,5,R,ugm-3,10,R,ugm-3,17,R,ugm-3
10-01-1995,04:00,3,R,ugm-3,11,R,ugm-3,15,R,ugm-3
10-01-1995,05:00,3,R,ugm-3,8,R,ugm-3,11,R,ugm-3
10-01-1995,06:00,5,R,ugm-3,15,R,ugm-3,23,R,ugm-3
10-01-1995,07:00,16,R,ugm-3,38,R,ugm-3,63,R,ugm-3
10-01-1995,08:00,48,R,ugm-3,57,R,ugm-3,130,R,ugm-3
10-01-1995,09:00,54,R,ugm-3,63,R,ugm-3,145,R,ugm-3
10-01-1995,10:00,41,R,ugm-3,73,R,ugm-3,136,R,ugm-3
10-01-1995,11:00,20,R,ugm-3,61,R,ugm-3,92,R,ugm-3
10-01-1995,12:00,26,R,ugm-3,57,R,ugm-3,97,R,ugm-3
10-01-1995,13:00,36,R,ugm-3,67,R,ugm-3,122,R,ugm-3
10-01-1995,14:00,61,R,ugm-3,84,R,ugm-3,178,R,ugm-3
10-01-1995,15:00,66,R,ugm-3,80,R,ugm-3,181,R,ugm-3
10-01-1995,16:00,40,R,ugm-3,73,R,ugm-3,134,R,ugm-3
10-01-1995,17:00,38,R,ugm-3,73,R,ugm-3,130,R,ugm-3
10-01-1995,18:00,13,R,ugm-3,44,R,ugm-3,63,R,ugm-3
10-01-1995,19:00,4,R,ugm-3,21,R,ugm-3,27,R,ugm-3
10-01-1995,20:00,8,R,ugm-3,50,R,ugm-3,61,R,ugm-3
10-01-1995,21:00,10,R,ugm-3,48,R,ugm-3,63,R,ugm-3
10-01-1995,22:00,5,R,ugm-3,40,R,ugm-3,48,R,ugm-3
10-01-1995,23:00,4,R,ugm-3,29,R,ugm-3,34,R,ugm-3
10-01-1995,24:00,4,R,ugm-3,25,R,ugm-3,31,R,ugm-3
11-01-1995,01:00,5,R,ugm-3,11,R,ugm-3,19,R,ugm-3
11-01-1995,02:00,4,R,ugm-3,8,R,ugm-3,13,R,ugm-3
11-01-1995,03:00,5,R,ugm-3,4,R,ugm-3,11,R,ugm-3
11-01-1995,04:00,4,R,ugm-3,2,R,ugm-3,8,R,ugm-3
11-01-1995,05:00,4,R,ugm-3,8,R,ugm-3,13,R,ugm-3
11-01-1995,06:00,9,R,ugm-3,15,R,ugm-3,29,R,ugm-3
11-01-1995,07:00,93,R,ugm-3,73,R,ugm-3,214,R,ugm-3
11-01-1995,08:00,90,R,ugm-3,92,R,ugm-3,229,R,ugm-3
11-01-1995,09:00,51,R,ugm-3,74,R,ugm-3,153,R,ugm-3
11-01-1995,10:00,34,R,ugm-3,53,R,ugm-3,105,R,ugm-3
11-01-1995,11:00,23,R,ugm-3,32,R,ugm-3,67,R,ugm-3
11-01-1995,12:00,23,R,ugm-3,36,R,ugm-3,71,R,ugm-3
11-01-1995,13:00,48,R,ugm-3,52,R,ugm-3,124,R,ugm-3
11-01-1995,14:00,40,R,ugm-3,46,R,ugm-3,107,R,ugm-3
11-01-1995,15:00,39,R,ugm-3,42,R,ugm-3,101,R,ugm-3
11-01-1995,16:00,39,R,ugm-3,46,R,ugm-3,105,R,ugm-3
11-01-1995,17:00,23,R,ugm-3,44,R,ugm-3,78,R,ugm-3
11-01-1995,18:00,60,R,ugm-3,55,R,ugm-3,147,R,ugm-3
11-01-1995,19:00,10,R,ugm-3,31,R,ugm-3,46,R,ugm-3
11-01-1995,20:00,9,R,ugm-3,19,R,ugm-3,32,R,ugm-3
11-01-1995,21:00,6,R,ugm-3,15,R,ugm-3,25,R,ugm-3
11-01-1995,22:00,5,R,ugm-3,11,R,ugm-3,19,R,ugm-3
11-01-1995,23:00,5,R,ugm-3,8,R,ugm-3,15,R,ugm-3
11-01-1995,24:00,3,R,ugm-3,8,R,ugm-3,11,R,ugm-3
12-01-1995,01:00,1,R,ugm-3,8,R,ugm-3,10,R,ugm-3
12-01-1995,02:00,3,R,ugm-3,6,R,ugm-3,10,R,ugm-3
12-01-1995,03:00,3,R,ugm-3,6,R,ugm-3,10,R,ugm-3
12-01-1995,04:00,3,R,ugm-3,6,R,ugm-3,10,R,ugm-3
12-01-1995,05:00,4,R,ugm-3,4,R,ugm-3,10,R,ugm-3
12-01-1995,06:00,4,R,ugm-3,10,R,ugm-3,15,R,ugm-3
12-01-1995,07:00,48,R,ugm-3,44,R,ugm-3,117,R,ugm-3
12-01-1995,08:00,134,R,ugm-3,109,R,ugm-3,313,R,ugm-3
12-01-1995,09:00,43,R,ugm-3,61,R,ugm-3,126,R,ugm-3
12-01-1995,10:00,16,R,ugm-3,36,R,ugm-3,61,R,ugm-3
12-01-1995,11:00,30,R,ugm-3,42,R,ugm-3,88,R,ugm-3
12-01-1995,12:00,60,R,ugm-3,61,R,ugm-3,153,R,ugm-3
12-01-1995,13:00,85,R,ugm-3,74,R,ugm-3,204,R,ugm-3
12-01-1995,14:00,86,R,ugm-3,76,R,ugm-3,208,R,ugm-3
12-01-1995,15:00,78,R,ugm-3,82,R,ugm-3,201,R,ugm-3
12-01-1995,16:00,91,R,ugm-3,78,R,ugm-3,218,R,ugm-3
12-01-1995,17:00,140,R,ugm-3,80,R,ugm-3,294,R,ugm-3
12-01-1995,18:00,91,R,ugm-3,69,R,ugm-3,208,R,ugm-3
12-01-1995,19:00,35,R,ugm-3,65,R,ugm-3,118,R,ugm-3
12-01-1995,20:00,35,R,ugm-3,65,R,ugm-3,118,R,ugm-3
12-01-1995,21:00,40,R,ugm-3,63,R,ugm-3,124,R,ugm-3
12-01-1995,22:00,28,R,ugm-3,61,R,ugm-3,103,R,ugm-3
12-01-1995,23:00,8,R,ugm-3,48,R,ugm-3,59,R,ugm-3
12-01-1995,24:00,3,R,ugm-3,42,R,ugm-3,46,R,ugm-3
13-01-1995,01:00,3,R,ugm-3,25,R,ugm-3,29,R,ugm-3
13-01-1995,02:00,1,R,ugm-3,19,R,ugm-3,21,R,ugm-3
13-01-1995,03:00,3,R,ugm-3,11,R,ugm-3,15,R,ugm-3
13-01-1995,04:00,1,R,ugm-3,10,R,ugm-3,11,R,ugm-3
13-01-1995,05:00,3,R,ugm-3,19,R,ugm-3,23,R,ugm-3
13-01-1995,06:00,3,R,ugm-3,15,R,ugm-3,19,R,ugm-3
13-01-1995,07:00,13,R,ugm-3,32,R,ugm-3,52,R,ugm-3
13-01-1995,08:00,28,R,ugm-3,38,R,ugm-3,80,R,ugm-3
13-01-1995,09:00,26,R,ugm-3,52,R,ugm-3,92,R,ugm-3
13-01-1995,10:00,23,R,ugm-3,48,R,ugm-3,82,R,ugm-3
13-01-1995,11:00,25,R,ugm-3,42,R,ugm-3,80,R,ugm-3
13-01-1995,12:00,45,R,ugm-3,50,R,ugm-3,118,R,ugm-3
13-01-1995,13:00,41,R,ugm-3,48,R,ugm-3,111,R,ugm-3
13-01-1995,14:00,30,R,ugm-3,44,R,ugm-3,90,R,ugm-3
13-01-1995,15:00,24,R,ugm-3,44,R,ugm-3,80,R,ugm-3
13-01-1995,16:00,11,R,ugm-3,42,R,ugm-3,59,R,ugm-3
13-01-1995,17:00,34,R,ugm-3,55,R,ugm-3,107,R,ugm-3
13-01-1995,18:00,18,R,ugm-3,53,R,ugm-3,80,R,ugm-3
13-01-1995,19:00,13,R,ugm-3,55,R,ugm-3,74,R,ugm-3
13-01-1995,20:00,9,R,ugm-3,42,R,ugm-3,55,R,ugm-3
13-01-1995,21:00,5,R,ugm-3,31,R,ugm-3,38,R,ugm-3
13-01-1995,22:00,4,R,ugm-3,17,R,ugm-3,23,R,ugm-3
13-01-1995,23:00,5,R,ugm-3,23,R,ugm-3,31,R,ugm-3
13-01-1995,24:00,3,R,ugm-3,17,R,ugm-3,21,R,ugm-3
14-01-1995,01:00,3,R,ugm-3,8,R,ugm-3,11,R,ugm-3
14-01-1995,02:00,5,R,ugm-3,15,R,ugm-3,23,R,ugm-3
14-01-1995,03:00,4,R,ugm-3,17,R,ugm-3,23,R,ugm-3
14-01-1995,04:00,4,R,ugm-3,11,R,ugm-3,17,R,ugm-3
14-01-1995,05:00,5,R,ugm-3,15,R,ugm-3,23,R,ugm-3
14-01-1995,06:00,3,R,ugm-3,4,R,ugm-3,8,R,ugm-3
14-01-1995,07:00,8,R,ugm-3,13,R,ugm-3,25,R,ugm-3
14-01-1995,08:00,16,R,ugm-3,15,R,ugm-3,40,R,ugm-3
14-01-1995,09:00,5,R,ugm-3,19,R,ugm-3,27,R,ugm-3
14-01-1995,10:00,5,R,ugm-3,19,R,ugm-3,27,R,ugm-3
14-01-1995,11:00,,,,,,,,,
14-01-1995,12:00,,,,,,,,,
14-01-1995,13:00,8,R,ugm-3,15,R,ugm-3,27,R,ugm-3
14-01-1995,14:00,6,R,ugm-3,19,R,ugm-3,29,R,ugm-3
14-01-1995,15:00,4,R,ugm-3,19,R,ugm-3,25,R,ugm-3
14-01-1995,16:00,6,R,ugm-3,23,R,ugm-3,32,R,ugm-3
14-01-1995,17:00,,,,,,,,,
14-01-1995,18:00,,,,,,,,,
14-01-1995,19:00,8,R,ugm-3,31,R,ugm-3,42,R,ugm-3
14-01-1995,20:00,10,R,ugm-3,42,R,ugm-3,57,R,ugm-3
14-01-1995,21:00,5,R,ugm-3,46,R,ugm-3,53,R,ugm-3
14-01-1995,22:00,9,R,ugm-3,46,R,ugm-3,59,R,ugm-3
14-01-1995,23:00,19,R,ugm-3,61,R,ugm-3,90,R,ugm-3
14-01-1995,24:00,20,R,ugm-3,50,R,ugm-3,80,R,ugm-3
15-01-1995,01:00,13,R,ugm-3,40,R,ugm-3,59,R,ugm-3
15-01-1995,02:00,16,R,ugm-3,50,R,ugm-3,74,R,ugm-3
15-01-1995,03:00,11,R,ugm-3,40,R,ugm-3,57,R,ugm-3
15-01-1995,04:00,6,R,ugm-3,34,R,ugm-3,44,R,ugm-3
15-01-1995,05:00,5,R,ugm-3,23,R,ugm-3,31,R,ugm-3
15-01-1995,06:00,5,R,ugm-3,17,R,ugm-3,25,R,ugm-3
15-01-1995,07:00,16,R,ugm-3,32,R,ugm-3,57,R,ugm-3
15-01-1995,08:00,45,R,ugm-3,48,R,ugm-3,117,R,ugm-3
15-01-1995,09:00,55,R,ugm-3,52,R,ugm-3,136,R,ugm-3
15-01-1995,10:00,41,R,ugm-3,52,R,ugm-3,115,R,ugm-3
15-01-1995,11:00,73,R,ugm-3,50,R,ugm-3,160,R,ugm-3
15-01-1995,12:00,49,R,ugm-3,44,R,ugm-3,118,R,ugm-3
15-01-1995,13:00,13,R,ugm-3,31,R,ugm-3,50,R,ugm-3
15-01-1995,14:00,11,R,ugm-3,31,R,ugm-3,48,R,ugm-3
15-01-1995,15:00,9,R,ugm-3,29,R,ugm-3,42,R,ugm-3
15-01-1995,16:00,5,R,ugm-3,19,R,ugm-3,27,R,ugm-3
15-01-1995,17:00,4,R,ugm-3,13,R,ugm-3,19,R,ugm-3
15-01-1995,18:00,4,R,ugm-3,15,R,ugm-3,21,R,ugm-3
15-01-1995,19:00,5,R,ugm-3,13,R,ugm-3,21,R,ugm-3
15-01-1995,20:00,4,R,ugm-3,11,R,ugm-3,17,R,ugm-3
15-01-1995,21:00,6,R,ugm-3,13,R,ugm-3,23,R,ugm-3
15-01-1995,22:00,4,R,ugm-3,15,R,ugm-3,21,R,ugm-3
15-01-1995,23:00,3,R,ugm-3,13,R,ugm-3,17,R,ugm-3
15-01-1995,24:00,3,R,ugm-3,6,R,ugm-3,10,R,ugm-3
16-01-1995,01:00,1,R,ugm-3,8,R,ugm-3,10,R,ugm-3
16-01-1995,02:00,4,R,ugm-3,13,R,ugm-3,19,R,ugm-3
16-01-1995,03:00,1,R,ugm-3,6,R,ugm-3,8,R,ugm-3
16-01-1995,04:00,4,R,ugm-3,6,R,ugm-3,11,R,ugm-3
16-01-1995,05:00,3,R,ugm-3,8,R,ugm-3,11,R,ugm-3
16-01-1995,06:00,3,R,ugm-3,6,R,ugm-3,10,R,ugm-3
16-01-1995,07:00,5,R,ugm-3,8,R,ugm-3,15,R,ugm-3
16-01-1995,08:00,11,R,ugm-3,13,R,ugm-3,31,R,ugm-3
16-01-1995,09:00,6,R,ugm-3,21,R,ugm-3,31,R,ugm-3
16-01-1995,10:00,8,R,ugm-3,25,R,ugm-3,36,R,ugm-3
16-01-1995,11:00,8,R,ugm-3,32,R,ugm-3,44,R,ugm-3
16-01-1995,12:00,9,R,ugm-3,15,R,ugm-3,29,R,ugm-3
16-01-1995,13:00,9,R,ugm-3,29,R,ugm-3,42,R,ugm-3
16-01-1995,14:00,9,R,ugm-3,31,R,ugm-3,44,R,ugm-3
16-01-1995,15:00,10,R,ugm-3,32,R,ugm-3,48,R,ugm-3
16-01-1995,16:00,5,R,ugm-3,19,R,ugm-3,27,R,ugm-3
16-01-1995,17:00,4,R,ugm-3,29,R,ugm-3,34,R,ugm-3
16-01-1995,18:00,4,R,ugm-3,31,R,ugm-3,36,R,ugm-3
16-01-1995,19:00,3,R,ugm-3,40,R,ugm-3,44,R,ugm-3
16-01-1995,20:00,4,R,ugm-3,15,R,ugm-3,21,R,ugm-3
16-01-1995,21:00,4,R,ugm-3,17,R,ugm-3,23,R,ugm-3
16-01-1995,22:00,3,R,ugm-3,19,R,ugm-3,23,R,ugm-3
16-01-1995,23:00,4,R,ugm-3,25,R,ugm-3,31,R,ugm-3
16-01-1995,24:00,10,R,ugm-3,32,R,ugm-3,48,R,ugm-3
17-01-1995,01:00,3,R,ugm-3,21,R,ugm-3,25,R,ugm-3
17-01-1995,02:00,1,R,ugm-3,21,R,ugm-3,23,R,ugm-3
17-01-1995,03:00,1,R,ugm-3,13,R,ugm-3,15,R,ugm-3
17-01-1995,04:00,3,R,ugm-3,11,R,ugm-3,15,R,ugm-3
17-01-1995,05:00,3,R,ugm-3,8,R,ugm-3,11,R,ugm-3
17-01-1995,06:00,6,R,ugm-3,19,R,ugm-3,29,R,ugm-3
17-01-1995,07:00,15,R,ugm-3,38,R,ugm-3,61,R,ugm-3
17-01-1995,08:00,138,R,ugm-3,96,R,ugm-3,306,R,ugm-3
17-01-1995,09:00,208,R,ugm-3,124,R,ugm-3,441,R,ugm-3
17-01-1995,10:00,125,R,ugm-3,94,R,ugm-3,285,R,ugm-3
17-01-1995,11:00,40,R,ugm-3,80,R,ugm-3,141,R,ugm-3
17-01-1995,12:00,25,R,ugm-3,55,R,ugm-3,94,R,ugm-3
17-01-1995,13:00,16,R,ugm-3,48,R,ugm-3,73,R,ugm-3
17-01-1995,14:00,,,,,,,,,
17-01-1995,15:00,,,,,,,,,
17-01-1995,16:00,59,R,ugm-3,57,R,ugm-3,147,R,ugm-3
17-01-1995,17:00,44,R,ugm-3,55,R,ugm-3,122,R,ugm-3
17-01-1995,18:00,38,R,ugm-3,52,R,ugm-3,109,R,ugm-3
17-01-1995,19:00,55,R,ugm-3,61,R,ugm-3,145,R,ugm-3
17-01-1995,20:00,8,R,ugm-3,23,R,ugm-3,34,R,ugm-3
17-01-1995,21:00,5,R,ugm-3,13,R,ugm-3,21,R,ugm-3
17-01-1995,22:00,10,R,ugm-3,25,R,ugm-3,40,R,ugm-3
17-01-1995,23:00,34,R,ugm-3,48,R,ugm-3,99,R,ugm-3
17-01-1995,24:00,26,R,ugm-3,42,R,ugm-3,82,R,ugm-3
18-01-1995,01:00,6,R,ugm-3,11,R,ugm-3,21,R,ugm-3
18-01-1995,02:00,8,R,ugm-3,11,R,ugm-3,23,R,ugm-3
18-01-1995,03:00,4,R,ugm-3,8,R,ugm-3,13,R,ugm-3
18-01-1995,04:00,1,R,ugm-3,4,R,ugm-3,6,R,ugm-3
18-01-1995,05:00,3,R,ugm-3,8,R,ugm-3,11,R,ugm-3
18-01-1995,06:00,3,R,ugm-3,4,R,ugm-3,8,R,ugm-3
18-01-1995,07:00,8,R,ugm-3,11,R,ugm-3,23,R,ugm-3
18-01-1995,08:00,33,R,ugm-3,44,R,ugm-3,94,R,ugm-3
18-01-1995,09:00,39,R,ugm-3,53,R,ugm-3,113,R,ugm-3
18-01-1995,10:00,15,R,ugm-3,40,R,ugm-3,63,R,ugm-3
18-01-1995,11:00,9,R,ugm-3,34,R,ugm-3,48,R,ugm-3
18-01-1995,12:00,13,R,ugm-3,36,R,ugm-3,55,R,ugm-3
18-01-1995,13:00,16,R,ugm-3,36,R,ugm-3,61,R,ugm-3
18-01-1995,14:00,14,R,ugm-3,36,R,ugm-3,57,R,ugm-3
18-01-1995,15:00,19,R,ugm-3,44,R,ugm-3,73,R,ugm-3
18-01-1995,16:00,21,R,ugm-3,52,R,ugm-3,84,R,ugm-3
18-01-1995,17:00,14,R,ugm-3,59,R,ugm-3,80,R,ugm-3
18-01-1995,18:00,21,R,ugm-3,73,R,ugm-3,105,R,ugm-3
18-01-1995,19:00,60,R,ugm-3,82,R,ugm-3,174,R,ugm-3
18-01-1995,20:00,91,R,ugm-3,94,R,ugm-3,233,R,ugm-3
18-01-1995,21:00,86,R,ugm-3,82,R,ugm-3,214,R,ugm-3
18-01-1995,22:00,31,R,ugm-3,59,R,ugm-3,107,R,ugm-3
18-01-1995,23:00,4,R,ugm-3,42,R,ugm-3,48,R,ugm-3
18-01-1995,24:00,6,R,ugm-3,42,R,ugm-3,52,R,ugm-3
19-01-1995,01:00,11,R,ugm-3,46,R,ugm-3,63,R,ugm-3
19-01-1995,02:00,60,R,ugm-3,74,R,ugm-3,166,R,ugm-3
19-01-1995,03:00,11,R,ugm-3,42,R,ugm-3,59,R,ugm-3
19-01-1995,04:00,39,R,ugm-3,65,R,ugm-3,124,R,ugm-3
19-01-1995,05:00,65,R,ugm-3,86,R,ugm-3,185,R,ugm-3
19-01-1995,06:00,48,R,ugm-3,73,R,ugm-3,145,R,ugm-3
19-01-1995,07:00,44,R,ugm-3,65,R,ugm-3,132,R,ugm-3
19-01-1995,08:00,41,R,ugm-3,59,R,ugm-3,122,R,ugm-3
19-01-1995,09:00,81,R,ugm-3,80,R,ugm-3,204,R,ugm-3
19-01-1995,10:00,111,R,ugm-3,96,R,ugm-3,265,R,ugm-3
19-01-1995,11:00,75,R,ugm-3,74,R,ugm-3,189,R,ugm-3
19-01-1995,12:00,98,R,ugm-3,88,R,ugm-3,237,R,ugm-3
19-01-1995,13:00,91,R,ugm-3,105,R,ugm-3,244,R,ugm-3
19-01-1995,14:00,16,R,ugm-3,46,R,ugm-3,71,R,ugm-3
19-01-1995,15:00,14,R,ugm-3,31,R,ugm-3,52,R,ugm-3
19-01-1995,16:00,8,R,ugm-3,19,R,ugm-3,31,R,ugm-3
19-01-1995,17:00,3,R,ugm-3,15,R,ugm-3,19,R,ugm-3
19-01-1995,18:00,24,R,ugm-3,38,R,ugm-3,74,R,ugm-3
19-01-1995,19:00,39,R,ugm-3,59,R,ugm-3,118,R,ugm-3
19-01-1995,20:00,4,R,ugm-3,23,R,ugm-3,29,R,ugm-3
19-01-1995,21:00,3,R,ugm-3,15,R,ugm-3,19,R,ugm-3
19-01-1995,22:00,3,R,ugm-3,10,R,ugm-3,13,R,ugm-3
19-01-1995,23:00,1,R,ugm-3,8,R,ugm-3,10,R,ugm-3
19-01-1995,24:00,3,R,ugm-3,4,R,ugm-3,8,R,ugm-3
20-01-1995,01:00,6,R,ugm-3,25,R,ugm-3,34,R,ugm-3
20-01-1995,02:00,4,R,ugm-3,17,R,ugm-3,23,R,ugm-3
20-01-1995,03:00,3,R,ugm-3,10,R,ugm-3,13,R,ugm-3
20-01-1995,04:00,53,R,ugm-3,57,R,ugm-3,138,R,ugm-3
20-01-1995,05:00,44,R,ugm-3,76,R,ugm-3,143,R,ugm-3
20-01-1995,06:00,19,R,ugm-3,50,R,ugm-3,78,R,ugm-3
20-01-1995,07:00,23,R,ugm-3,50,R,ugm-3,84,R,ugm-3
20-01-1995,08:00,23,R,ugm-3,61,R,ugm-3,96,R,ugm-3
20-01-1995,09:00,45,R,ugm-3,76,R,ugm-3,145,R,ugm-3
20-01-1995,10:00,61,R,ugm-3,84,R,ugm-3,178,R,ugm-3
20-01-1995,11:00,98,R,ugm-3,111,R,ugm-3,260,R,ugm-3
20-01-1995,12:00,63,R,ugm-3,67,R,ugm-3,162,R,ugm-3
20-01-1995,13:00,23,R,ugm-3,53,R,ugm-3,88,R,ugm-3
20-01-1995,14:00,46,R,ugm-3,73,R,ugm-3,143,R,ugm-3
20-01-1995,15:00,24,R,ugm-3,48,R,ugm-3,84,R,ugm-3
20-01-1995,16:00,15,R,ugm-3,50,R,ugm-3,73,R,ugm-3
20-01-1995,17:00,5,R,ugm-3,38,R,ugm-3,46,R,ugm-3
20-01-1995,18:00,4,R,ugm-3,34,R,ugm-3,40,R,ugm-3
20-01-1995,19:00,5,R,ugm-3,32,R,ugm-3,40,R,ugm-3
20-01-1995,20:00,4,R,ugm-3,23,R,ugm-3,29,R,ugm-3
20-01-1995,21:00,4,R,ugm-3,27,R,ugm-3,32,R,ugm-3
20-01-1995,22:00,4,R,ugm-3,36,R,ugm-3,42,R,ugm-3
20-01-1995,23:00,3,R,ugm-3,38,R,ugm-3,42,R,ugm-3
20-01-1995,24:00,1,R,ugm-3,17,R,ugm-3,19,R,ugm-3
21-01-1995,01:00,3,R,ugm-3,13,R,ugm-3,17,R,ugm-3